This demonstration page uses our WeatherBlox Daily Observations layout. Learn more.

Left ArrowRight Arrow

34.02893, -84.19858

Hourly Observations for October 17, 2019

Temp ( °F °C ) Dew Point ( °F °C ) Humidity (%) Winds ( mph kmh ) Pressure ( in mb ) Visibility ( mi km ) Precip ( " mm )
12:53 am 00:53 Clear 52 11.1 40 4.4 64 64 NW 8 13 29.93 1013 10 16 0.00 0.00
1:53 am 01:53 Clear 50 10 40 4.4 68 68 WNW 7 11 29.93 1014 10 16 0.00 0.00
2:53 am 02:53 Clear 47 8.3 40 4.4 77 77 W 6 9 29.95 1014 10 16 0.00 0.00
3:53 am 03:53 Clear 47 8.3 40 4.4 77 77 WNW 7 11 29.94 1014 10 16 0.00 0.00
4:53 am 04:53 Clear 46 7.8 40 4.4 79 79 WNW 10 17 29.94 1014 10 16 0.00 0.00
5:53 am 05:53 Clear 46 7.8 39 3.9 77 77 NW 7 11 29.95 1014 10 16 0.00 0.00
6:53 am 06:53 Clear 44 6.7 39 3.9 83 83 WNW 6 9 29.98 1015 10 16 0.00 0.00
7:53 am 07:53 Sunny 44 6.7 39 3.9 83 83 NW 5 7 29.98 1015 10 16 0.00 0.00
8:53 am 08:53 Sunny 46 7.8 40 4.4 79 79 W 8 13 30.01 1016 10 16 0.00 0.00
9:53 am 09:53 Sunny 49 9.4 40 4.4 71 71 W 10 17 30.03 1017 10 16 0.00 0.00
10:53 am 10:53 Sunny 53 11.7 39 3.9 59 59 NW 10 17 30.01 1016 10 16 0.00 0.00
11:53 am 11:53 Sunny 56 13.3 39 3.9 53 53 NW 12 19 30.01 1016 10 16 0.00 0.00
12:53 pm 12:53 Sunny 59 15 38 3.3 46 46 WNW 13 20 29.99 1016 10 16 0.00 0.00
1:53 pm 13:53 Sunny 63 17.2 36 2.2 37 37 NNW 10 17 29.96 1015 10 16 0.00 0.00
2:53 pm 14:53 Sunny 64 17.8 36 2.2 35 35 WNW 9 15 29.95 1014 10 16 0.00 0.00
3:53 pm 15:53 Sunny 65 18.3 36 2.2 34 34 NNW 12 19 29.93 1014 10 16 0.00 0.00
4:53 pm 16:53 Sunny 64 17.8 34 1.1 33 33 NW 12 19 29.93 1013 10 16 0.00 0.00
5:53 pm 17:53 Sunny 63 17.2 34 1.1 34 34 WNW 9 15 29.93 1014 10 16 0.00 0.00
6:53 pm 18:53 Sunny 59 15 34 1.1 39 39 NW 9 15 29.95 1014 10 16 0.00 0.00
7:53 pm 19:53 Clear 57 13.9 36 2.2 45 45 NNW 9 15 29.95 1014 10 16 0.00 0.00
8:53 pm 20:53 Clear 55 12.8 37 2.8 51 51 NNW 6 9 29.94 1014 10 16 0.00 0.00
9:53 pm 21:53 Clear 54 12.2 36 2.2 51 51 NNW 7 11 29.96 1014 10 16 0.00 0.00
10:53 pm 22:53 Clear 49 9.4 37 2.8 64 64 NNW 5 7 29.96 1015 10 16 0.00 0.00
11:53 pm 23:53 Clear 50 10 37 2.8 61 61 NNW 5 7 29.96 1015 10 16 0.00 0.00

Powered by AerisWeather